Starlink 34208

operational
NORAD ID: 64740 Int'l Des: 2025-144 Owner: SPXS Country: US Constellation: starlink
LEOCIRCULAR

Starlink 34208について

説明を読み込み中...

リアルタイム位置

3D地球を読み込み中...

次回通過

高度履歴

Altitude vs Time

uPlot chart will show altitude changes over time

軌道要素

1 64740U 25144S 25342.42416820 .00037282 00000-0 12645-2 0 9992
2 64740 53.1573 242.4815 0001072 80.3819 279.7303 15.30203160 25775
Epoch: Dec 8, 2025 • Age: 15 hours

現在のステータス

高度 485.5 km
速度 7.62 km/s
衛星直下点 -31.97°S, 9.52°W
打ち上げ日 Jul 2, 2025
運用期間 0.4 years
タイプ internet

技術仕様

分類 Payload
質量 575.00 kg
乾燥質量 530.00 kg
総質量 575.00 kg
長さ 0.30 m
直径 4.10 m
スパン 29.00 m
形状 Box + pan
製造者 SPXS
バスタイプ Starlink V2MO
フェーズステータス In Orbit
所有者/国 SPXS/US

大規模コンステレーション

Loading constellations...